Location: LDNL
(36.4545°S, 141.6685°E)
Time: 09:09:26
(UTC+11:00)

Courier 1B - Pass Details

Date: 08 February 2023
Orbit: 962 x 1209 km, 28.3° (Epoch: 21 March)

Event Time Altitude Azimuth Distance (km) Brightness Sun altitude
Exits shadow 05:19:17 25° 325° (NW) 2,227 8.8 -18.2°
Maximum altitude 05:20:21 26° 338° (NNW) 2,194 8.9 -18.0°
Drops below altitude 10° 05:26:32 10° 30° (NNE) 3,142 10.1 -17.0°
Sets 05:29:55 0° 42° (NE) 4,094 10.9 -16.4°
